When you browse on this site, cookies collect data to enhance your experience and personalize the content and advertising you see.
Visit our Privacy Policy to learn more. By continuing to use the site, you agree to this use of cookies and data.
  • In Hungary
  • List of Countries
  • For 7 days
  • Water Temperature
  • Weather Map
  • News
  • Weather Widgets
  • user-avatar
    Login

    Hourly Weather Tokmakovo

    Today, 21 October, Monday

    Time Temperature Precipitation Wind Pressure Humidity
    00:00 +10°C° 0 mm 3 mps 754 mmHg 94%
    01:00 +10°C° 0 mm 3 mps 754 mmHg 94%
    02:00 +10°C° 0 mm 3 mps 754 mmHg 94%
    03:00 +10°C° 0 mm 3 mps 754 mmHg 95%
    04:00 +10°C° 0 mm 3 mps 753 mmHg 95%
    05:00 +10°C° 0 mm 3 mps 753 mmHg 95%
    06:00 +10°C° 0 mm 3 mps 753 mmHg 95%
    07:00 +10°C° 0 mm 4 mps 753 mmHg 93%
    08:00 +11°C° 0 mm 4 mps 753 mmHg 90%
    09:00 +10°C° 0 mm 5 mps 753 mmHg 88%
    10:00 +13°C° 0 mm 5 mps 752 mmHg 82%
    11:00 +14°C° 0 mm 6 mps 752 mmHg 76%
    12:00 +15°C° 0 mm 6 mps 751 mmHg 70%
    13:00 +15°C° 0 mm 6 mps 751 mmHg 69%
    14:00 +15°C° 0 mm 6 mps 751 mmHg 68%
    15:00 +15°C° 0 mm 6 mps 750 mmHg 67%
    16:00 +14°C° 0 mm 6 mps 750 mmHg 69%
    17:00 +14°C° 0 mm 6 mps 750 mmHg 71%
    18:00 +13°C° 0 mm 5 mps 749 mmHg 72%
    19:00 +13°C° 0 mm 5 mps 750 mmHg 74%
    20:00 +13°C° 0 mm 5 mps 750 mmHg 76%
    21:00 +12°C° 0 mm 4 mps 750 mmHg 79%
    22:00 +12°C° 0.5 mm 3 mps 750 mmHg 83%
    23:00 +12°C° 0.5 mm 3 mps 750 mmHg 88%

    Tomorrow, 22 October, Tuesday

    Time Temperature Precipitation Wind Pressure Humidity
    00:00 +12°C° 0.5 mm 2 mps 750 mmHg 93%
    01:00 +12°C° 0.6 mm 2 mps 750 mmHg 93%
    02:00 +12°C° 0.6 mm 2 mps 750 mmHg 94%
    03:00 +12°C° 0.6 mm 2 mps 750 mmHg 94%
    04:00 +10°C° 0 mm 2 mps 751 mmHg 95%
    05:00 +9°C° 0 mm 2 mps 751 mmHg 96%
    06:00 +8°C° 0 mm 2 mps 751 mmHg 96%
    07:00 +8°C° 0 mm 2 mps 752 mmHg 94%
    08:00 +9°C° 0 mm 3 mps 752 mmHg 93%
    09:00 +9°C° 0 mm 3 mps 752 mmHg 91%
    10:00 +9°C° 0 mm 3 mps 753 mmHg 87%
    11:00 +10°C° 0 mm 2 mps 753 mmHg 84%
    12:00 +10°C° 0 mm 2 mps 753 mmHg 80%
    13:00 +10°C° 0 mm 2 mps 753 mmHg 79%
    14:00 +10°C° 0 mm 2 mps 754 mmHg 77%
    15:00 +11°C° 0 mm 1 mps 754 mmHg 76%
    16:00 +11°C° 0 mm 1 mps 754 mmHg 77%
    17:00 +11°C° 0 mm 1 mps 754 mmHg 79%
    18:00 +10°C° 0 mm 1 mps 754 mmHg 80%
    19:00 +10°C° 0 mm 1 mps 754 mmHg 80%
    20:00 +10°C° 0 mm 1 mps 754 mmHg 80%
    21:00 +10°C° 0 mm 1 mps 754 mmHg 79%
    22:00 +9°C° 0 mm 2 mps 754 mmHg 80%
    23:00 +9°C° 0 mm 2 mps 753 mmHg 80%

    Day after tomorrow, 23 October, Wednesday

    Time Temperature Precipitation Wind Pressure Humidity
    00:00 +9°C° 0 mm 2 mps 753 mmHg 81%
    01:00 +8°C° 0 mm 2 mps 753 mmHg 84%
    02:00 +7°C° 0 mm 2 mps 753 mmHg 87%
    03:00 +6°C° 0 mm 2 mps 753 mmHg 91%
    04:00 +5°C° 0 mm 3 mps 753 mmHg 90%
    05:00 +5°C° 0 mm 3 mps 752 mmHg 90%
    06:00 +5°C° 0 mm 3 mps 752 mmHg 90%
    07:00 +6°C° 0 mm 4 mps 751 mmHg 87%
    08:00 +7°C° 0 mm 4 mps 751 mmHg 84%
    09:00 +7°C° 0 mm 5 mps 751 mmHg 81%
    10:00 +9°C° 0 mm 5 mps 751 mmHg 80%
    11:00 +10°C° 0 mm 5 mps 750 mmHg 79%
    12:00 +12°C° 0 mm 5 mps 750 mmHg 77%
    13:00 +13°C° 0 mm 5 mps 750 mmHg 78%
    14:00 +14°C° 0 mm 5 mps 750 mmHg 78%
    15:00 +14°C° 0 mm 5 mps 749 mmHg 78%
    16:00 +13°C° 0 mm 4 mps 749 mmHg 82%
    17:00 +12°C° 0 mm 4 mps 749 mmHg 86%
    18:00 +11°C° 0 mm 3 mps 749 mmHg 91%
    19:00 +11°C° 0 mm 3 mps 749 mmHg 91%
    20:00 +11°C° 0 mm 3 mps 749 mmHg 92%
    21:00 +11°C° 0 mm 3 mps 750 mmHg 93%
    22:00 +11°C° 0 mm 3 mps 750 mmHg 94%
    23:00 +12°C° 0 mm 2 mps 750 mmHg 95%

    24 October, Thursday

    Time Temperature Precipitation Wind Pressure Humidity
    00:00 +12°C° 0 mm 2 mps 750 mmHg 95%
    01:00 +12°C° 0 mm 2 mps 750 mmHg 94%
    02:00 +12°C° 0 mm 1 mps 750 mmHg 93%
    03:00 +12°C° 0 mm 1 mps 750 mmHg 91%
    04:00 +12°C° 0 mm 1 mps 750 mmHg 89%
    05:00 +12°C° 0 mm 1 mps 751 mmHg 86%
    06:00 +11°C° 0 mm 1 mps 751 mmHg 83%
    07:00 +11°C° 0 mm 1 mps 751 mmHg 81%
    08:00 +11°C° 0 mm 1 mps 751 mmHg 79%
    09:00 +11°C° 0 mm 1 mps 751 mmHg 77%
    10:00 +12°C° 0 mm 1 mps 751 mmHg 75%
    11:00 +12°C° 0 mm 1 mps 752 mmHg 73%
    12:00 +12°C° 0 mm 2 mps 752 mmHg 71%
    13:00 +12°C° 0 mm 2 mps 752 mmHg 70%
    14:00 +12°C° 0 mm 1 mps 752 mmHg 68%
    15:00 +12°C° 0 mm 1 mps 752 mmHg 67%
    16:00 +11°C° 0 mm 1 mps 752 mmHg 71%
    17:00 +10°C° 0 mm 1 mps 752 mmHg 74%
    18:00 +9°C° 0 mm 1 mps 752 mmHg 78%
    19:00 +9°C° 0 mm 1 mps 752 mmHg 79%
    20:00 +8°C° 0 mm 1 mps 752 mmHg 80%
    21:00 +8°C° 0 mm 1 mps 753 mmHg 81%
    22:00 +7°C° 0 mm 0 mps 753 mmHg 82%
    23:00 +6°C° 0 mm 0 mps 752 mmHg 83%

    25 October, Friday

    Time Temperature Precipitation Wind Pressure Humidity
    00:00 +6°C° 0 mm 0 mps 752 mmHg 83%
    01:00 +6°C° 0 mm 0 mps 752 mmHg 84%
    02:00 +7°C° 0 mm 1 mps 753 mmHg 84%
    03:00 +6°C° 0 mm 1 mps 753 mmHg 85%
    04:00 +6°C° 0 mm 1 mps 753 mmHg 85%
    05:00 +6°C° 0 mm 1 mps 753 mmHg 86%
    06:00 +6°C° 0 mm 1 mps 753 mmHg 86%
    07:00 +7°C° 0 mm 1 mps 753 mmHg 84%
    08:00 +7°C° 0 mm 1 mps 753 mmHg 82%
    09:00 +8°C° 0 mm 1 mps 754 mmHg 80%
    10:00 +9°C° 0 mm 1 mps 754 mmHg 77%
    11:00 +11°C° 0 mm 1 mps 754 mmHg 74%
    12:00 +12°C° 0 mm 1 mps 754 mmHg 71%
    13:00 +12°C° 0 mm 1 mps 754 mmHg 71%
    14:00 +12°C° 0 mm 1 mps 754 mmHg 71%
    15:00 +12°C° 0 mm 1 mps 754 mmHg 71%
    16:00 +11°C° 0 mm 1 mps 754 mmHg 76%
    17:00 +10°C° 0 mm 1 mps 754 mmHg 81%
    18:00 +9°C° 0 mm 1 mps 754 mmHg 86%
    19:00 +8°C° 0 mm 1 mps 754 mmHg 86%
    20:00 +8°C° 0 mm 1 mps 754 mmHg 87%
    21:00 +8°C° 0 mm 1 mps 754 mmHg 87%
    22:00 +7°C° 0 mm 1 mps 754 mmHg 88%
    23:00 +6°C° 0 mm 2 mps 754 mmHg 89%

    26 October, Saturday

    Time Temperature Precipitation Wind Pressure Humidity
    00:00 +6°C° 0 mm 2 mps 754 mmHg 89%
    01:00 +6°C° 0 mm 2 mps 753 mmHg 90%
    02:00 +6°C° 0 mm 2 mps 753 mmHg 90%
    03:00 +5°C° 0 mm 2 mps 753 mmHg 91%
    04:00 +5°C° 0 mm 2 mps 753 mmHg 91%
    05:00 +4°C° 0 mm 3 mps 753 mmHg 92%
    06:00 +4°C° 0 mm 3 mps 752 mmHg 92%
    07:00 +5°C° 0 mm 3 mps 752 mmHg 89%
    08:00 +6°C° 0 mm 4 mps 752 mmHg 85%
    09:00 +6°C° 0 mm 4 mps 752 mmHg 81%
    10:00 +8°C° 0 mm 5 mps 751 mmHg 77%
    11:00 +9°C° 0 mm 5 mps 751 mmHg 73%
    12:00 +11°C° 0 mm 6 mps 751 mmHg 69%
    13:00 +11°C° 0 mm 6 mps 751 mmHg 69%
    14:00 +11°C° 0 mm 6 mps 750 mmHg 69%
    15:00 +11°C° 0 mm 6 mps 750 mmHg 70%
    16:00 +10°C° 0 mm 5 mps 750 mmHg 73%
    17:00 +9°C° 0 mm 5 mps 750 mmHg 77%
    18:00 +10°C° 0 mm 4 mps 750 mmHg 81%
    19:00 +8°C° 0 mm 4 mps 750 mmHg 83%
    20:00 +8°C° 0 mm 4 mps 750 mmHg 85%
    21:00 +8°C° 0 mm 4 mps 750 mmHg 87%
    22:00 +8°C° 0 mm 3 mps 750 mmHg 89%
    23:00 +8°C° 0 mm 3 mps 750 mmHg 90%

    27 October, Sunday

    Time Temperature Precipitation Wind Pressure Humidity
    00:00 +8°C° 0 mm 3 mps 749 mmHg 92%
    01:00 +8°C° 0 mm 3 mps 749 mmHg 93%
    02:00 +7°C° 0 mm 4 mps 749 mmHg 93%
    03:00 +7°C° 0 mm 4 mps 749 mmHg 94%
    04:00 +6°C° 0 mm 4 mps 748 mmHg 94%
    05:00 +6°C° 0 mm 4 mps 748 mmHg 94%
    06:00 +6°C° 0 mm 4 mps 748 mmHg 95%
    07:00 +7°C° 0 mm 5 mps 748 mmHg 91%
    08:00 +7°C° 0 mm 5 mps 747 mmHg 88%
    09:00 +8°C° 0 mm 6 mps 747 mmHg 85%
    10:00 +9°C° 0 mm 6 mps 747 mmHg 81%
    11:00 +10°C° 0 mm 6 mps 747 mmHg 77%
    12:00 +11°C° 0 mm 7 mps 747 mmHg 73%
    13:00 +13°C° 0 mm 6 mps 746 mmHg 74%
    14:00 +13°C° 0 mm 6 mps 746 mmHg 74%
    15:00 +13°C° 0 mm 5 mps 746 mmHg 74%
    16:00 +13°C° 0 mm 5 mps 745 mmHg 77%
    17:00 +12°C° 0 mm 5 mps 745 mmHg 80%
    18:00 +10°C° 0 mm 5 mps 745 mmHg 83%
    19:00 +10°C° 0 mm 5 mps 745 mmHg 84%
    20:00 +10°C° 0 mm 5 mps 745 mmHg 84%
    21:00 +10°C° 0 mm 5 mps 744 mmHg 85%
    22:00 +10°C° 0.4 mm 5 mps 744 mmHg 85%
    23:00 +10°C° 0.4 mm 5 mps 744 mmHg 86%
    Show more